Stations météo

réclame
Mon MeteoGroup
Malmo/Sturup, Suède (2636): Température de l'air & dewpoint: 14.11.2017 00:00:00 - 20.11.2017 00:00:00 (CET)Malmo/Sturup, Suède (2636): Vitesse du vent: 14.11.2017 00:00:00 - 20.11.2017 00:00:00 (CET)Malmo/Sturup, Suède (2636): Direction du vent: 14.11.2017 00:00:00 - 20.11.2017 00:00:00 (CET)Malmo/Sturup, Suède (2636): reduced air pressure: 14.11.2017 00:00:00 - 20.11.2017 00:00:00 (CET)Malmo/Sturup, Suède (2636): visibility: 14.11.2017 00:00:00 - 20.11.2017 00:00:00 (CET)
Date & Time tt [°C] td [°C] ff [km/h] ff [knt] dd ppp [hPa] vv [km]
20.11.2017 00:00:00 -0,8 -1,6 15 8 NNW 1007,6 10
19.11.2017 23:00:00 -0,6 -1,7 22 12 NNW 1007,2 10
19.11.2017 22:00:00 -0,3 -1,7 26 14 NNW 1006,8 10
19.11.2017 21:00:00 0,3 -1,1 26 14 NNW 1005,8 10
19.11.2017 20:00:00 1,0 -0,8 34 18 NNW 1004,0 10
19.11.2017 19:00:00 1,9 0,1 37 20 NNW 1002,9 10
19.11.2017 18:00:00 2,1 0,6 35 19 NNW 1001,3 10
19.11.2017 17:00:00 2,2 0,7 37 20 NNW 999,8 10
19.11.2017 16:00:00 2,3 1,1 31 17 NW 998,1 10
19.11.2017 15:00:00 3,1 1,1 31 17 NW 997,1 10
19.11.2017 14:00:00 3,6 0,8 41 22 NW 996,7 10
19.11.2017 13:00:00 3,7 1,4 35 19 NW 996,2 10
19.11.2017 12:00:00 4,4 2,1 34 18 NW 995,8 10
19.11.2017 11:00:00 5,1 3,4 29 16 WNW 995,4 10
19.11.2017 10:00:00 4,9 3,4 24 13 NW 994,9 10
19.11.2017 09:00:00 4,9 3,4 28 15 W 994,4 10
19.11.2017 08:00:00 5,2 3,5 26 14 W 994,3 10
19.11.2017 07:00:00 5,2 3,5 24 13 WSW 994,2 10
19.11.2017 06:00:00 5,4 3,7 26 14 WSW 994,8 10
19.11.2017 05:00:00 4,6 3,7 28 15 WSW 995,7 10
19.11.2017 04:00:00 4,9 3,2 28 15 W 996,2 10
19.11.2017 03:00:00 4,8 2,3 28 15 WSW 996,7 10
19.11.2017 02:00:00 4,7 2,6 26 14 WSW 997,6 10
19.11.2017 01:00:00 5,2 3,4 29 16 WSW 998,3 10
19.11.2017 00:00:00 5,2 3,4 28 15 WSW 999,1 10
18.11.2017 23:00:00 4,6 2,6 24 13 W 999,7 10
18.11.2017 22:00:00 5,0 3,8 22 12 W 1000,2 10
18.11.2017 21:00:00 5,0 3,0 24 13 WSW 1000,5 10
18.11.2017 20:00:00 4,6 2,6 22 12 W 1000,7 10
18.11.2017 19:00:00 4,3 2,6 24 13 W 1001,2 10
18.11.2017 18:00:00 4,0 2,0 22 12 W 1001,7 10
18.11.2017 17:00:00 4,0 2,0 24 13 W 1001,8 10
18.11.2017 16:00:00 3,6 1,3 22 12 W 1001,9 10
18.11.2017 15:00:00 3,7 2,4 26 14 NW 1002,2 7
18.11.2017 14:00:00 4,9 2,9 21 11 W 1001,9 10
18.11.2017 13:00:00 4,7 3,0 24 13 W 1002,2 10
18.11.2017 12:00:00 5,7 4,7 37 20 WSW 1002,1 9
18.11.2017 11:00:00 5,8 4,8 34 18 SW 1003,1 10
18.11.2017 10:00:00 6,0 4,8 34 18 SW 1004,4 7
18.11.2017 09:00:00 6,1 4,7 35 19 SW 1005,6 10
18.11.2017 08:00:00 5,8 4,4 31 17 SW 1006,8 10
18.11.2017 07:00:00 6,3 4,6 31 17 SW 1008,0 10
18.11.2017 06:00:00 6,0 4,3 31 17 SW 1009,2 10
18.11.2017 05:00:00 5,9 4,2 29 16 SW 1010,5 10
18.11.2017 04:00:00 6,1 4,7 28 15 SW 1011,5 10
18.11.2017 03:00:00 6,3 4,6 28 15 SW 1012,9 10
18.11.2017 02:00:00 6,2 4,5 26 14 SW 1013,9 10
18.11.2017 01:00:00 6,3 4,9 28 15 SW 1014,7 10
18.11.2017 00:00:00 6,3 4,6 24 13 SW 1015,4 10
17.11.2017 23:00:00 6,2 4,5 24 13 SW 1016,3 10
17.11.2017 22:00:00 5,8 4,0 21 11 SW 1017,1 10
17.11.2017 21:00:00 5,1 3,8 18 10 WSW 1018,0 10
17.11.2017 20:00:00 5,4 3,7 16 9 WSW 1018,5 10
17.11.2017 19:00:00 4,9 3,6 16 9 WSW 1018,9 10
17.11.2017 18:00:00 4,8 2,8 15 8 SW 1019,4 10
17.11.2017 17:00:00 4,9 2,9 11 6 SW 1019,7 10
17.11.2017 16:00:00 6,1 3,3 13 7 WSW 1020,0 10
17.11.2017 15:00:00 7,4 3,8 21 11 W 1019,9 10
17.11.2017 14:00:00 7,3 3,9 22 12 W 1020,2 10
17.11.2017 13:00:00 7,4 4,2 22 12 W 1020,5 10
17.11.2017 12:00:00 7,2 3,8 24 13 W 1020,5 10
17.11.2017 11:00:00 7,0 4,0 18 10 W 1020,6 10
17.11.2017 10:00:00 6,2 3,7 16 9 W 1020,3 10
17.11.2017 09:00:00 5,4 3,2 13 7 W 1019,9 10
17.11.2017 08:00:00 4,7 2,6 18 10 W 1019,6 10
17.11.2017 07:00:00 4,6 2,5 18 10 W 1019,2 10
17.11.2017 06:00:00 4,5 2,8 18 10 W 1018,7 10
17.11.2017 05:00:00 4,9 2,9 18 10 W 1018,3 10
17.11.2017 04:00:00 5,0 3,0 18 10 W 1017,7 10
17.11.2017 03:00:00 5,5 3,7 21 11 WNW 1017,2 10
17.11.2017 02:00:00 6,2 4,5 18 10 WNW 1016,6 10
17.11.2017 01:00:00 7,0 5,3 26 14 NW 1016,0 10
17.11.2017 00:00:00 8,2 7,8 28 15 WSW 1015,1 3,3
16.11.2017 23:00:00 8,0 7,6 26 14 SW 1015,4 4,1
16.11.2017 22:00:00 8,0 7,6 26 14 SW 1015,9 4,9
16.11.2017 21:00:00 8,0 7,7 26 14 SW 1016,3 3,7
16.11.2017 20:00:00 8,0 7,4 24 13 SSW 1016,7 6
16.11.2017 19:00:00 8,1 7,3 26 14 SSW 1017,3 6
16.11.2017 18:00:00 7,9 7,1 26 14 SSW 1017,8 5
16.11.2017 17:00:00 8,0 7,4 22 12 SSW 1018,5 5
16.11.2017 16:00:00 7,9 7,5 21 11 S 1019,2 5
16.11.2017 15:00:00 7,8 7,5 22 12 SSW 1019,9 5
16.11.2017 14:00:00 7,4 7,1 16 9 S 1020,7 4,8
16.11.2017 13:00:00 7,5 6,9 21 11 S 1021,4 8
16.11.2017 12:00:00 7,3 7,0 18 10 SSW 1022,1 9
16.11.2017 11:00:00 7,5 7,5 15 8 S 1022,7 5
16.11.2017 10:00:00 6,2 6,1 8 4 S 1023,1 4,0
16.11.2017 09:00:00 4,2 4,1 8 4 SSE 1023,4 0,3
16.11.2017 08:00:00 2,4 2,3 5 3 SSE 1023,5 0,2
16.11.2017 07:00:00 2,6 2,6 5 3 SSE 1023,5 0,3
16.11.2017 06:00:00 2,0 2,0 4 2 SE 1023,7 0,1
16.11.2017 05:00:00 2,5 2,5 5 3 - 1023,7 0,1
16.11.2017 04:00:00 3,3 3,3 5 3 SSE 1023,9 -
16.11.2017 03:00:00 2,6 2,6 5 3 SSE 1024,0 0,1
16.11.2017 02:00:00 2,2 2,1 8 4 SW 1024,0 0,1
16.11.2017 01:00:00 0,9 0,8 5 3 SW 1023,7 0,2
16.11.2017 00:00:00 2,4 2,3 9 5 WSW 1024,2 1,1
15.11.2017 23:00:00 3,5 3,4 5 3 SW 1024,2 8
15.11.2017 22:00:00 3,3 3,0 5 3 SW 1023,8 8
15.11.2017 21:00:00 5,9 5,5 11 6 W 1023,4 10
15.11.2017 20:00:00 6,6 6,0 13 7 W 1022,8 10
15.11.2017 19:00:00 6,8 6,1 15 8 W 1022,6 10
15.11.2017 18:00:00 7,3 6,6 15 8 W 1022,0 10
15.11.2017 17:00:00 7,8 7,4 18 10 WSW 1021,9 10
15.11.2017 16:00:00 7,8 6,7 21 11 WSW 1021,5 10
15.11.2017 15:00:00 8,1 6,7 21 11 WSW 1021,2 10
15.11.2017 14:00:00 8,2 6,7 21 11 W 1021,3 10
15.11.2017 13:00:00 8,9 6,5 21 11 W 1020,9 10
15.11.2017 12:00:00 8,6 6,7 22 12 W 1020,8 10
15.11.2017 11:00:00 7,8 6,4 22 12 W 1020,9 10
15.11.2017 10:00:00 7,4 6,7 21 11 WSW 1020,5 9
15.11.2017 09:00:00 6,8 6,5 16 9 WSW 1020,1 10
15.11.2017 08:00:00 5,9 5,8 13 7 WSW 1019,9 9
15.11.2017 07:00:00 5,1 4,8 13 7 WSW 1019,4 8
15.11.2017 06:00:00 5,0 4,6 15 8 W 1019,2 8
15.11.2017 05:00:00 5,5 5,1 13 7 W 1018,8 10
15.11.2017 04:00:00 6,0 5,4 16 9 W 1018,7 10
15.11.2017 03:00:00 6,3 5,6 15 8 W 1018,6 10
15.11.2017 02:00:00 6,2 5,5 18 10 W 1018,3 10
15.11.2017 01:00:00 6,1 5,5 15 8 W 1017,9 10
15.11.2017 00:00:00 5,9 5,3 16 9 W 1017,3 10
14.11.2017 23:00:00 5,8 4,9 15 8 W 1016,6 10
14.11.2017 22:00:00 7,0 5,5 21 11 WNW 1016,1 10
14.11.2017 21:00:00 7,6 5,7 21 11 WNW 1015,2 10
14.11.2017 20:00:00 7,8 5,4 28 15 WNW 1014,0 10
14.11.2017 19:00:00 8,1 6,2 28 15 W 1013,3 10
14.11.2017 18:00:00 8,0 6,6 28 15 W 1012,4 10
14.11.2017 17:00:00 7,1 6,5 28 15 WSW 1011,9 10
14.11.2017 16:00:00 6,4 5,7 28 15 WSW 1011,8 8
14.11.2017 15:00:00 5,3 4,6 35 19 SW 1011,9 5
14.11.2017 14:00:00 5,5 4,8 29 16 SW 1012,1 10
14.11.2017 13:00:00 5,8 4,8 29 16 SW 1012,7 10
14.11.2017 12:00:00 5,6 4,4 24 13 SW 1013,9 10
14.11.2017 11:00:00 5,3 4,3 18 10 SW 1014,9 10
14.11.2017 10:00:00 4,9 3,9 13 7 SW 1015,6 8
14.11.2017 09:00:00 4,2 3,0 9 5 SW 1015,8 10
14.11.2017 08:00:00 2,6 1,7 13 7 WSW 1015,9 10
14.11.2017 07:00:00 2,1 1,2 11 6 SW 1015,8 10
14.11.2017 06:00:00 1,4 0,8 9 5 WSW 1015,8 10
14.11.2017 05:00:00 1,9 1,6 11 6 SW 1015,8 10
14.11.2017 04:00:00 -1,4 -1,5 5 3 SSE 1016,3 10
14.11.2017 03:00:00 -1,1 -1,7 11 6 SW 1016,5 10
14.11.2017 02:00:00 -1,8 -2,2 8 4 S 1016,8 10
14.11.2017 01:00:00 -3,2 -3,3 5 3 SSE 1016,8 10
14.11.2017 00:00:00 -3,6 -3,7 5 3 SW 1016,6 10

tt = Température de l'air
td = dewpoint
ff = Vitesse du vent
dd = Direction du vent
ppp = reduced air pressure
vv = visibility

stations d'obs. à proximité